Orbital Elements at Epoch 2459200.5 (2020-Dec-17.0) TDB
Reference: JPL 30 (heliocentric ecliptic J2000)
Element | Value | Uncertainty (1-sigma) | Units |
e | .1326494488015774 | 2.9953e-08 | |
a | 2.26735845989054 | 6.9913e-09 | au |
q | 1.966594609950466 | 6.972e-08 | au |
i | 4.573640357593545 | 3.8517e-06 | deg |
node | 201.1443407322391 | 3.8397e-05 | deg |
peri | 135.3293903573439 | 4.1043e-05 | deg |
M | 330.7269775748753 | 1.4732e-05 | deg |
tp | 2459301.901357728455 (2021-Mar-28.40135773) | 5.117e-05 | TDB |
period | 1247.035179767173 3.41 | 5.7678e-06 1.579e-08 | d yr |
n | .2886847186357756 | 1.3352e-09 | deg/d |
Q | 2.568122309830613 | 7.9187e-09 | au |
|
| | Orbit Determination Parameters
Additional Information
|